Time,TemperatureF,DewpointF,PressureIn,WindDirection,WindDirectionDegrees,WindSpeedMPH,WindSpeedGustMPH,Humidity,HourlyPrecipIn,Conditions,Clouds,dailyrainin,SoftwareType,DateUTC
2013-04-03 00:05:00,30.1,16.0,29.81,WSW,256,1.0,2.0,55,0.00,,,0.00,vanprod,2013-04-03 04:05:00,
2013-04-03 00:15:00,30.3,15.0,29.81,SW,232,2.0,2.0,53,0.00,,,0.00,vanprod,2013-04-03 04:15:00,
2013-04-03 00:25:00,30.6,16.0,29.81,West,263,3.0,3.0,54,0.00,,,0.00,vanprod,2013-04-03 04:25:00,
2013-04-03 00:35:00,31.0,17.0,29.81,West,260,3.0,0.0,55,0.00,,,0.00,vanprod,2013-04-03 04:35:00,
2013-04-03 00:45:00,31.0,16.0,29.81,WSW,246,3.0,3.0,54,0.00,,,0.00,vanprod,2013-04-03 04:45:00,
2013-04-03 00:55:00,31.0,17.0,29.81,SSW,203,3.0,6.0,55,0.00,,,0.00,vanprod,2013-04-03 04:55:00,
2013-04-03 01:05:00,31.2,17.0,29.81,NNW,339,3.0,3.0,56,0.00,,,0.00,vanprod,2013-04-03 05:05:00,
2013-04-03 01:15:00,31.0,17.0,29.81,SSW,213,3.0,3.0,56,0.00,,,0.00,vanprod,2013-04-03 05:15:00,
2013-04-03 01:25:00,31.0,17.0,29.81,WSW,241,3.0,4.0,56,0.00,,,0.00,vanprod,2013-04-03 05:25:00,
2013-04-03 01:35:00,30.9,18.0,29.81,WNW,282,3.0,3.0,58,0.00,,,0.00,vanprod,2013-04-03 05:35:00,
2013-04-03 01:45:00,30.9,17.0,29.82,SW,220,3.0,0.0,57,0.00,,,0.00,vanprod,2013-04-03 05:45:00,
2013-04-03 01:55:00,30.9,17.0,29.82,NW,304,3.0,8.0,56,0.00,,,0.00,vanprod,2013-04-03 05:55:00,
2013-04-03 02:05:00,30.9,17.0,29.82,West,277,4.0,4.0,55,0.00,,,0.00,vanprod,2013-04-03 06:05:00,
2013-04-03 02:15:00,30.6,18.0,29.82,WSW,254,2.0,2.0,59,0.00,,,0.00,vanprod,2013-04-03 06:15:00,
2013-04-03 02:25:00,30.4,17.0,29.82,SSW,202,2.0,6.0,58,0.00,,,0.00,vanprod,2013-04-03 06:25:00,
2013-04-03 02:35:00,30.4,17.0,29.82,SW,219,3.0,3.0,58,0.00,,,0.00,vanprod,2013-04-03 06:35:00,
2013-04-03 02:45:00,30.4,16.0,29.82,SSW,213,4.0,4.0,55,0.00,,,0.00,vanprod,2013-04-03 06:45:00,
2013-04-03 02:55:00,30.6,15.0,29.82,SW,220,3.0,4.0,53,0.00,,,0.00,vanprod,2013-04-03 06:55:00,
2013-04-03 03:05:00,30.4,15.0,29.82,SSW,200,2.0,2.0,53,0.00,,,0.00,vanprod,2013-04-03 07:05:00,
2013-04-03 03:15:00,30.3,16.0,29.82,WSW,248,2.0,2.0,54,0.00,,,0.00,vanprod,2013-04-03 07:15:00,
2013-04-03 03:25:00,30.1,16.0,29.82,West,275,2.0,3.0,56,0.00,,,0.00,vanprod,2013-04-03 07:25:00,
2013-04-03 03:35:00,29.8,16.0,29.82,SW,229,2.0,0.0,57,0.00,,,0.00,vanprod,2013-04-03 07:35:00,
2013-04-03 03:45:00,29.7,16.0,29.82,SW,216,2.0,5.0,57,0.00,,,0.00,vanprod,2013-04-03 07:45:00,
2013-04-03 03:55:00,29.7,16.0,29.82,WSW,239,3.0,3.0,57,0.00,,,0.00,vanprod,2013-04-03 07:55:00,
2013-04-03 04:05:00,29.8,16.0,29.82,SSW,206,3.0,3.0,55,0.00,,,0.00,vanprod,2013-04-03 08:05:00,
2013-04-03 04:15:00,29.7,16.0,29.82,SW,217,2.0,0.0,57,0.00,,,0.00,vanprod,2013-04-03 08:15:00,
2013-04-03 04:25:00,29.5,15.0,29.82,WSW,258,3.0,3.0,54,0.00,,,0.00,vanprod,2013-04-03 08:25:00,
2013-04-03 04:35:00,29.5,14.0,29.83,West,278,3.0,3.0,51,0.00,,,0.00,vanprod,2013-04-03 08:35:00,
2013-04-03 04:45:00,29.5,14.0,29.83,SSW,209,2.0,2.0,51,0.00,,,0.00,vanprod,2013-04-03 08:45:00,
2013-04-03 04:55:00,29.5,13.0,29.83,West,268,3.0,3.0,50,0.00,,,0.00,vanprod,2013-04-03 08:55:00,
2013-04-03 05:05:00,29.5,13.0,29.83,SW,220,2.0,2.0,50,0.00,,,0.00,vanprod,2013-04-03 09:05:00,
2013-04-03 05:15:00,29.5,14.0,29.84,WSW,241,2.0,2.0,52,0.00,,,0.00,vanprod,2013-04-03 09:15:00,
2013-04-03 05:25:00,29.3,13.0,29.84,WSW,250,2.0,3.0,50,0.00,,,0.00,vanprod,2013-04-03 09:25:00,
2013-04-03 05:35:00,29.3,13.0,29.84,WSW,240,2.0,2.0,51,0.00,,,0.00,vanprod,2013-04-03 09:35:00,
2013-04-03 05:45:00,29.3,12.0,29.84,SW,223,2.0,2.0,48,0.00,,,0.00,vanprod,2013-04-03 09:45:00,
2013-04-03 05:55:00,29.3,12.0,29.84,SW,232,3.0,3.0,48,0.00,,,0.00,vanprod,2013-04-03 09:55:00,
2013-04-03 06:05:00,29.0,14.0,29.84,SSW,199,2.0,2.0,54,0.00,,,0.00,vanprod,2013-04-03 10:05:00,
2013-04-03 06:15:00,28.5,14.0,29.84,SW,229,2.0,2.0,54,0.00,,,0.00,vanprod,2013-04-03 10:15:00,
2013-04-03 06:25:00,28.5,13.0,29.84,SSW,212,2.0,2.0,51,0.00,,,0.00,vanprod,2013-04-03 10:25:00,
2013-04-03 06:35:00,28.5,14.0,29.85,SSW,208,2.0,2.0,53,0.00,,,0.00,vanprod,2013-04-03 10:35:00,
2013-04-03 06:45:00,28.4,14.0,29.86,WSW,240,2.0,3.0,54,0.00,,,0.00,vanprod,2013-04-03 10:45:00,
2013-04-03 06:55:00,28.5,12.0,29.86,SW,217,3.0,3.0,50,0.00,,,0.00,vanprod,2013-04-03 10:55:00,
2013-04-03 07:05:00,28.8,12.0,29.86,WSW,243,1.0,1.0,50,0.00,,,0.00,vanprod,2013-04-03 11:05:00,
2013-04-03 07:15:00,28.8,12.0,29.87,SSW,205,2.0,2.0,50,0.00,,,0.00,vanprod,2013-04-03 11:15:00,
2013-04-03 07:25:00,29.0,14.0,29.87,SW,232,2.0,2.0,53,0.00,,,0.00,vanprod,2013-04-03 11:25:00,
2013-04-03 07:35:00,29.1,12.0,29.87,SW,233,2.0,2.0,48,0.00,,,0.00,vanprod,2013-04-03 11:35:00,
2013-04-03 07:45:00,29.3,13.0,29.87,South,174,2.0,2.0,51,0.00,,,0.00,vanprod,2013-04-03 11:45:00,
2013-04-03 07:55:00,29.5,13.0,29.87,WSW,240,3.0,3.0,49,0.00,,,0.00,vanprod,2013-04-03 11:55:00,
2013-04-03 08:05:00,30.1,12.0,29.87,WSW,240,4.0,4.0,46,0.00,,,0.00,vanprod,2013-04-03 12:05:00,
2013-04-03 08:15:00,30.4,12.0,29.87,West,260,3.0,3.0,46,0.00,,,0.00,vanprod,2013-04-03 12:15:00,
2013-04-03 08:25:00,30.7,12.0,29.87,WSW,251,4.0,4.0,46,0.00,,,0.00,vanprod,2013-04-03 12:25:00,
2013-04-03 08:35:00,31.2,13.0,29.87,SW,227,4.0,4.0,46,0.00,,,0.00,vanprod,2013-04-03 12:35:00,
2013-04-03 08:45:00,31.5,12.0,29.86,NW,323,4.0,7.0,44,0.00,,,0.00,vanprod,2013-04-03 12:45:00,
2013-04-03 08:55:00,31.8,13.0,29.86,WSW,253,5.0,5.0,45,0.00,,,0.00,vanprod,2013-04-03 12:55:00,
2013-04-03 09:05:00,32.2,12.0,29.86,NW,312,4.0,4.0,43,0.00,,,0.00,vanprod,2013-04-03 13:05:00,
2013-04-03 09:15:00,32.7,12.0,29.86,WSW,251,4.0,4.0,42,0.00,,,0.00,vanprod,2013-04-03 13:15:00,
2013-04-03 09:25:00,33.4,11.0,29.86,WNW,295,4.0,4.0,40,0.00,,,0.00,vanprod,2013-04-03 13:25:00,
2013-04-03 09:35:00,34.0,10.0,29.86,SW,223,4.0,4.0,37,0.00,,,0.00,vanprod,2013-04-03 13:35:00,
2013-04-03 09:45:00,34.4,11.0,29.85,WNW,284,5.0,8.0,38,0.00,,,0.00,vanprod,2013-04-03 13:45:00,
2013-04-03 09:55:00,34.9,12.0,29.85,West,261,5.0,5.0,38,0.00,,,0.00,vanprod,2013-04-03 13:55:00,
2013-04-03 10:05:00,35.2,10.0,29.86,WNW,289,6.0,7.0,35,0.00,,,0.00,vanprod,2013-04-03 14:05:00,
2013-04-03 10:15:00,35.5,10.0,29.85,WNW,287,6.0,6.0,35,0.00,,,0.00,vanprod,2013-04-03 14:15:00,
2013-04-03 10:25:00,35.8,8.0,29.85,West,261,6.0,6.0,31,0.00,,,0.00,vanprod,2013-04-03 14:25:00,
2013-04-03 10:35:00,36.0,10.0,29.85,WSW,239,5.0,5.0,34,0.00,,,0.00,vanprod,2013-04-03 14:35:00,
2013-04-03 10:45:00,36.6,8.0,29.85,SW,216,5.0,5.0,30,0.00,,,0.00,vanprod,2013-04-03 14:45:00,
2013-04-03 10:55:00,37.2,11.0,29.85,SSW,212,4.0,5.0,34,0.00,,,0.00,vanprod,2013-04-03 14:55:00,
2013-04-03 11:05:00,38.2,11.0,29.85,North,6,4.0,7.0,32,0.00,,,0.00,vanprod,2013-04-03 15:05:00,
2013-04-03 11:15:00,38.3,9.0,29.85,West,270,6.0,6.0,29,0.00,,,0.00,vanprod,2013-04-03 15:15:00,
2013-04-03 11:25:00,38.5,10.0,29.85,WNW,288,5.0,5.0,30,0.00,,,0.00,vanprod,2013-04-03 15:25:00,
2013-04-03 11:35:00,38.9,13.0,29.84,NW,308,5.0,0.0,34,0.00,,,0.00,vanprod,2013-04-03 15:35:00,
2013-04-03 11:45:00,39.3,12.0,29.84,NW,304,5.0,5.0,32,0.00,,,0.00,vanprod,2013-04-03 15:45:00,
2013-04-03 11:55:00,40.2,12.0,29.84,WNW,287,4.0,7.0,31,0.00,,,0.00,vanprod,2013-04-03 15:55:00,
2013-04-03 12:05:00,40.1,11.0,29.84,WNW,291,5.0,5.0,30,0.00,,,0.00,vanprod,2013-04-03 16:05:00,
2013-04-03 12:15:00,39.6,13.0,29.84,NNE,14,6.0,6.0,33,0.00,,,0.00,vanprod,2013-04-03 16:15:00,
2013-04-03 12:25:00,40.3,9.0,29.84,NW,311,4.0,7.0,27,0.00,,,0.00,vanprod,2013-04-03 16:25:00,
2013-04-03 12:35:00,40.5,10.0,29.84,West,263,5.0,5.0,28,0.00,,,0.00,vanprod,2013-04-03 16:35:00,
2013-04-03 12:45:00,41.5,10.0,29.84,West,270,3.0,3.0,27,0.00,,,0.00,vanprod,2013-04-03 16:45:00,
2013-04-03 12:55:00,42.2,10.0,29.84,WNW,287,5.0,5.0,27,0.00,,,0.00,vanprod,2013-04-03 16:55:00,
2013-04-03 13:05:00,42.1,8.0,29.84,SW,229,6.0,6.0,24,0.00,,,0.00,vanprod,2013-04-03 17:05:00,
2013-04-03 13:15:00,41.5,11.0,29.84,WNW,298,5.0,5.0,28,0.00,,,0.00,vanprod,2013-04-03 17:15:00,
2013-04-03 13:25:00,42.1,9.0,29.84,WSW,240,6.0,6.0,26,0.00,,,0.00,vanprod,2013-04-03 17:25:00,
2013-04-03 13:35:00,43.1,14.0,29.84,NW,311,5.0,7.0,30,0.00,,,0.00,vanprod,2013-04-03 17:35:00,
2013-04-03 13:45:00,43.3,11.0,29.84,WSW,247,5.0,6.0,26,0.00,,,0.00,vanprod,2013-04-03 17:45:00,
2013-04-03 13:55:00,43.5,10.0,29.84,WNW,282,5.0,8.0,25,0.00,,,0.00,vanprod,2013-04-03 17:55:00,
2013-04-03 14:05:00,43.5,8.0,29.84,WSW,258,6.0,6.0,23,0.00,,,0.00,vanprod,2013-04-03 18:05:00,
2013-04-03 14:15:00,43.8,8.0,29.84,WSW,243,6.0,6.0,23,0.00,,,0.00,vanprod,2013-04-03 18:15:00,
2013-04-03 14:25:00,44.3,10.0,29.84,NW,319,5.0,11.0,24,0.00,,,0.00,vanprod,2013-04-03 18:25:00,
2013-04-03 14:35:00,44.5,11.0,29.84,NNW,344,5.0,12.0,25,0.00,,,0.00,vanprod,2013-04-03 18:35:00,
2013-04-03 14:45:00,44.1,8.0,29.84,West,260,7.0,7.0,22,0.00,,,0.00,vanprod,2013-04-03 18:45:00,
2013-04-03 14:55:00,44.5,8.0,29.84,West,264,5.0,7.0,22,0.00,,,0.00,vanprod,2013-04-03 18:55:00,
2013-04-03 15:05:00,44.6,8.0,29.84,West,265,5.0,5.0,22,0.00,,,0.00,vanprod,2013-04-03 19:05:00,
2013-04-03 15:15:00,44.6,8.0,29.84,West,261,7.0,12.0,22,0.00,,,0.00,vanprod,2013-04-03 19:15:00,
2013-04-03 15:25:00,44.6,8.0,29.84,NE,42,5.0,10.0,22,0.00,,,0.00,vanprod,2013-04-03 19:25:00,
2013-04-03 15:35:00,44.3,8.0,29.84,West,280,6.0,11.0,22,0.00,,,0.00,vanprod,2013-04-03 19:35:00,
2013-04-03 15:45:00,44.3,8.0,29.83,West,272,7.0,8.0,22,0.00,,,0.00,vanprod,2013-04-03 19:45:00,
2013-04-03 15:55:00,44.5,9.0,29.83,WNW,295,7.0,7.0,23,0.00,,,0.00,vanprod,2013-04-03 19:55:00,
2013-04-03 16:05:00,44.6,6.0,29.84,WSW,253,7.0,7.0,20,0.00,,,0.00,vanprod,2013-04-03 20:05:00,
2013-04-03 16:15:00,44.8,8.0,29.84,WNW,291,6.0,7.0,22,0.00,,,0.00,vanprod,2013-04-03 20:15:00,
2013-04-03 16:25:00,44.8,7.0,29.84,NW,305,5.0,6.0,21,0.00,,,0.00,vanprod,2013-04-03 20:25:00,
2013-04-03 16:35:00,44.6,6.0,29.84,SW,227,7.0,7.0,20,0.00,,,0.00,vanprod,2013-04-03 20:35:00,
2013-04-03 16:45:00,44.6,9.0,29.84,West,260,6.0,7.0,23,0.00,,,0.00,vanprod,2013-04-03 20:45:00,
2013-04-03 16:55:00,44.5,7.0,29.84,NNE,14,7.0,7.0,21,0.00,,,0.00,vanprod,2013-04-03 20:55:00,
2013-04-03 17:05:00,44.3,7.0,29.84,NNW,332,6.0,7.0,21,0.00,,,0.00,vanprod,2013-04-03 21:05:00,
2013-04-03 17:15:00,44.3,9.0,29.84,NW,309,4.0,4.0,23,0.00,,,0.00,vanprod,2013-04-03 21:15:00,
2013-04-03 17:25:00,44.3,8.0,29.84,West,278,4.0,6.0,22,0.00,,,0.00,vanprod,2013-04-03 21:25:00,
2013-04-03 17:35:00,44.2,7.0,29.84,SW,227,5.0,5.0,21,0.00,,,0.00,vanprod,2013-04-03 21:35:00,
2013-04-03 17:45:00,43.9,4.0,29.85,NNE,14,7.0,7.0,19,0.00,,,0.00,vanprod,2013-04-03 21:45:00,
2013-04-03 17:55:00,43.6,8.0,29.85,West,277,4.0,4.0,23,0.00,,,0.00,vanprod,2013-04-03 21:55:00,
2013-04-03 18:05:00,43.5,8.0,29.85,WNW,295,4.0,5.0,23,0.00,,,0.00,vanprod,2013-04-03 22:05:00,
2013-04-03 18:15:00,43.3,7.0,29.86,NW,313,4.0,8.0,22,0.00,,,0.00,vanprod,2013-04-03 22:15:00,
2013-04-03 18:25:00,42.9,7.0,29.86,West,278,4.0,0.0,22,0.00,,,0.00,vanprod,2013-04-03 22:25:00,
2013-04-03 18:35:00,42.5,8.0,29.87,West,263,5.0,5.0,24,0.00,,,0.00,vanprod,2013-04-03 22:35:00,
2013-04-03 18:45:00,42.1,7.0,29.88,WNW,292,4.0,10.0,23,0.00,,,0.00,vanprod,2013-04-03 22:45:00,
2013-04-03 18:55:00,41.8,7.0,29.88,WNW,296,5.0,8.0,23,0.00,,,0.00,vanprod,2013-04-03 22:55:00,
2013-04-03 19:05:00,41.3,8.0,29.89,SW,233,5.0,5.0,25,0.00,,,0.00,vanprod,2013-04-03 23:05:00,
2013-04-03 19:15:00,40.9,7.0,29.89,WNW,284,3.0,7.0,24,0.00,,,0.00,vanprod,2013-04-03 23:15:00,
2013-04-03 19:25:00,40.8,9.0,29.90,SSW,208,4.0,4.0,27,0.00,,,0.00,vanprod,2013-04-03 23:25:00,
2013-04-03 19:35:00,40.3,8.0,29.91,SW,219,4.0,4.0,26,0.00,,,0.00,vanprod,2013-04-03 23:35:00,
2013-04-03 19:45:00,40.1,9.0,29.91,NW,320,4.0,4.0,27,0.00,,,0.00,vanprod,2013-04-03 23:45:00,
2013-04-03 19:55:00,39.8,9.0,29.93,WNW,287,3.0,7.0,28,0.00,,,0.00,vanprod,2013-04-03 23:55:00,
2013-04-03 20:05:00,39.5,8.0,29.93,West,263,2.0,0.0,27,0.00,,,0.00,vanprod,2013-04-04 00:05:00,
2013-04-03 20:15:00,39.2,8.0,29.94,WSW,241,2.0,2.0,27,0.00,,,0.00,vanprod,2013-04-04 00:15:00,
2013-04-03 20:25:00,38.8,9.0,29.94,WNW,287,2.0,3.0,29,0.00,,,0.00,vanprod,2013-04-04 00:25:00,
2013-04-03 20:35:00,38.5,8.0,29.95,NW,311,2.0,3.0,28,0.00,,,0.00,vanprod,2013-04-04 00:35:00,
2013-04-03 20:45:00,38.3,11.0,29.96,SW,234,3.0,3.0,32,0.00,,,0.00,vanprod,2013-04-04 00:45:00,
2013-04-03 20:55:00,38.2,9.0,29.96,NW,311,3.0,3.0,29,0.00,,,0.00,vanprod,2013-04-04 00:55:00,
2013-04-03 21:05:00,37.9,10.0,29.97,West,275,3.0,3.0,32,0.00,,,0.00,vanprod,2013-04-04 01:05:00,
2013-04-03 21:15:00,37.6,12.0,29.97,WNW,285,2.0,3.0,34,0.00,,,0.00,vanprod,2013-04-04 01:15:00,
2013-04-03 21:25:00,37.3,10.0,29.97,WNW,288,4.0,4.0,32,0.00,,,0.00,vanprod,2013-04-04 01:25:00,
2013-04-03 21:35:00,37.2,12.0,29.98,WSW,244,3.0,3.0,35,0.00,,,0.00,vanprod,2013-04-04 01:35:00,
2013-04-03 21:45:00,36.9,11.0,29.98,West,261,3.0,3.0,34,0.00,,,0.00,vanprod,2013-04-04 01:45:00,
2013-04-03 21:55:00,36.9,12.0,29.98,SW,215,3.0,5.0,35,0.00,,,0.00,vanprod,2013-04-04 01:55:00,
2013-04-03 22:05:00,36.6,13.0,29.99,SW,232,2.0,4.0,38,0.00,,,0.00,vanprod,2013-04-04 02:05:00,
2013-04-03 22:15:00,36.3,12.0,29.99,WSW,258,2.0,4.0,37,0.00,,,0.00,vanprod,2013-04-04 02:15:00,
2013-04-03 22:25:00,36.2,13.0,30.00,WSW,251,2.0,0.0,39,0.00,,,0.00,vanprod,2013-04-04 02:25:00,
2013-04-03 22:35:00,35.9,14.0,30.00,WNW,299,2.0,2.0,40,0.00,,,0.00,vanprod,2013-04-04 02:35:00,
2013-04-03 22:45:00,35.8,14.0,30.00,SW,222,1.0,0.0,40,0.00,,,0.00,vanprod,2013-04-04 02:45:00,
2013-04-03 22:55:00,35.6,15.0,30.01,WSW,251,1.0,0.0,42,0.00,,,0.00,vanprod,2013-04-04 02:55:00,
2013-04-03 23:05:00,35.5,14.0,30.01,WNW,288,2.0,3.0,41,0.00,,,0.00,vanprod,2013-04-04 03:05:00,
2013-04-03 23:15:00,35.5,15.0,30.01,SW,222,2.0,0.0,43,0.00,,,0.00,vanprod,2013-04-04 03:15:00,
2013-04-03 23:25:00,35.3,16.0,30.02,West,261,1.0,3.0,45,0.00,,,0.00,vanprod,2013-04-04 03:25:00,
2013-04-03 23:35:00,35.0,15.0,30.03,WSW,250,1.0,1.0,43,0.00,,,0.00,vanprod,2013-04-04 03:35:00,
2013-04-03 23:45:00,34.9,16.0,30.03,WSW,251,1.0,0.0,45,0.00,,,0.00,vanprod,2013-04-04 03:45:00,
2013-04-03 23:55:00,34.7,17.0,30.03,SW,232,0.0,0.0,48,0.00,,,0.00,vanprod,2013-04-04 03:55:00,